Hourly Data Report for July 15, 2006

TORONTO CITY
ONTARIO

43°40'00.000" N
79°24'00.000" W
112.50 m
6158355
71508
XTO

Download Data

Hourly Data (July 2006)
Hourly Data Report for July 15, 2006
TIME
LST
Temp Definition
°C
Dew Point Definition
°C
Rel Hum Definition
%
Precip. Amount Definition
mm

Wind Dir Definition
10's deg

Wind Spd Definition
km/h
Visibility Definition
km
Stn Press Definition
kPa
Hmdx Definition


Wind Chill Definition


Weather Definition


00:00 25.4 21.4 79   LegendMM LegendMM   99.72 34   LegendNANA
01:00 24.2 21.9 87   LegendMM LegendMM   99.76 33   LegendNANA
02:00 23.0 22.3 96   LegendMM LegendMM   99.75 33   LegendNANA
03:00 22.7 22.3 98   LegendMM LegendMM   99.69 32   LegendNANA
04:00 22.4 22.1 98   LegendMM LegendMM   99.69 32   LegendNANA
05:00 22.2 21.9 98   LegendMM LegendMM   99.78 31   LegendNANA
06:00 22.6 22.4 99   LegendMM LegendMM   99.79 32   LegendNANA
07:00 23.3 22.7 96   LegendMM LegendMM   99.80 33   LegendNANA
08:00 24.8 22.6 88   LegendMM LegendMM   99.81 35   LegendNANA
09:00 26.0 19.9 69   LegendMM LegendMM   99.83 33   LegendNANA
10:00 27.0 19.4 63   LegendMM LegendMM   99.87 34   LegendNANA
11:00 28.5 19.8 59   LegendMM LegendMM   99.89 36   LegendNANA
12:00 29.6 21.6 62   LegendMM LegendMM   99.89 39   LegendNANA
13:00 30.4 20.1 54   LegendMM LegendMM   99.85 38   LegendNANA
14:00 31.4 19.8 50   LegendMM LegendMM   99.86 39   LegendNANA
15:00 30.9 17.3 44   LegendMM LegendMM   99.88 36   LegendNANA
16:00 31.0 15.5 39   LegendMM LegendMM   99.90 35   LegendNANA
17:00 30.7 15.6 40   LegendMM LegendMM   99.91 35   LegendNANA
18:00 30.2 16.3 43   LegendMM LegendMM   99.95 35   LegendNANA
19:00 29.4 16.2 45   LegendMM LegendMM   99.98 34   LegendNANA
20:00 28.5 16.5 48   LegendMM LegendMM   100.01 33   LegendNANA
21:00 26.6 17.4 57   LegendMM LegendMM   100.05 32   LegendNANA
22:00 26.4 17.8 59   LegendMM LegendMM   100.09 32   LegendNANA
23:00 25.8 17.8 61   LegendMM LegendMM   100.10 32   LegendNANA

Notes on Data Quality.

Legend

  • E = Estimated
  • M = Missing
  • NA = Not Available*
  • [empty] = Indicates an unobserved value
Date modified: